Starlink 36085

operational
NORAD ID: 67035 Int'l Des: 2025-294 Owner: SPXS Country: US Constellation: starlink
NOTLE

Starlink 36085について

説明を読み込み中...

リアルタイム位置

3D地球を読み込み中...

次回通過

高度履歴

Altitude vs Time

uPlot chart will show altitude changes over time

軌道要素

1 67035C 25294F 25346.87756944 .01013200 00000+0 14690-2 0 3467
2 67035 43.0026 182.4971 0009154 284.2051 337.7138 16.03184300 10
Epoch: Dec 12, 2025 • Age: 55 hours

現在のステータス

高度 266.0 km
速度 7.75 km/s
衛星直下点 -43.03°S, 116.95°W
打ち上げ日 Dec 11, 2025
運用期間 2 days
タイプ internet

技術仕様

分類 Payload
質量 575.00 kg
乾燥質量 530.00 kg
総質量 575.00 kg
長さ 0.30 m
直径 4.10 m
スパン 29.00 m
形状 Box + pan
製造者 SPXS
バスタイプ Starlink V2MO
フェーズステータス In Orbit
所有者/国 SPXS/US

大規模コンステレーション

Loading constellations...